Regional Weather Roundup
Issued by NWS Jackson, KY

Home | Current Version | Previous Version | Graphics & Text | Print | Product List | Glossary On
Versions: 1 2 3 4 5 6 7 8 9 10 11 12 13 14 15 16 17 18 19 20 21 22 23 24 25 26 27 28 29 30 31 32 33 34 35 36 37 38 39 40 41 42 43 44 45 46 47 48 49 50
000
ASUS43 KJKL 291810
RWRJKL

EAST KENTUCKY HOURLY WEATHER ROUNDUP
NATIONAL WEATHER SERVICE JACKSON KY
200 PM EDT SUN MAR 29 2015

NOTE: "FAIR" INDICATES FEW OR NO CLOUDS BELOW 12,000 FEET WITH
NO SIGNIFICANT WEATHER AND/OR OBSTRUCTIONS TO VISIBILITY.

* THESE REPORTS ARE NOT UNDER NWS QUALITY CONTROL AND MAY NOT
  REPORT WEATHER SUCH AS PRECIPITATION AND FOG.

KYZ079-080-083-085-087-088-110-112-115-119-120-291900
...EASTERN KENTUCKY...

CITY           SKY/WX    TMP DP  RH WIND       PRES   REMARKS
JACKSON        SUNNY     51   8  17 VRB6      30.27F
6HR MIN TEMP:  24; 6HR MAX TEMP:  51;

LONDON         SUNNY     51   7  16 S8G18     30.27F
6HR MIN TEMP:  22; 6HR MAX TEMP:  51;

SOMERSET*      SUNNY     50  12  22 S5        30.28F
MONTICELLO*    SUNNY     55   9  16 S8        30.28F
6HR MIN TEMP:  19; 6HR MAX TEMP:  55;

MIDDLESBORO*   SUNNY     50  14  24 S9        30.31F
6HR MIN TEMP:  21; 6HR MAX TEMP:  50;

HAZARD APT*    CLEAR     50   5  16 SW9G17    30.26F
BLACK MTN*       N/A     37  12  35 S9          N/A  WCI  31
PIKEVILLE APT* SUNNY     45  10  24 SE7       30.28F
BIG SANDY*       N/A     47   8  20 W5        30.29F
6HR MIN TEMP:  22; 6HR MAX TEMP:  48;

MOREHEAD APT*  PTCLDY    46   9  21 VRB7      30.29F
$$

KYZ035-036-041-042-044-050-067-078-099-291900
...CENTRAL KENTUCKY...

CITY           SKY/WX    TMP DP  RH WIND       PRES   REMARKS
MT STERLING*   MOSUNNY   48  14  25 SW10      30.28F
FLEMING/MASON* SUNNY     46  16  29 S14       30.28F
DANVILLE*      SUNNY     52  14  22 S10G18    30.25F
RICHMOND*      SUNNY     50   5  16 SW13G18   30.26F
LEXINGTON      SUNNY     50  11  20 S16G23    30.24F
6HR MIN TEMP:  25; 6HR MAX TEMP:  50;

FRANKFORT      SUNNY     50  12  21 SE12G20   30.22F
6HR MIN TEMP:  22; 6HR MAX TEMP:  50;

$$

KYZ091>093-OHZ055-061-077-WVZ005-015-034-035-042-291900
...SOUTHERN OHIO/WEST VIRGINIA...

CITY           SKY/WX    TMP DP  RH WIND       PRES   REMARKS
COVINGTON      PTSUNNY   47  14  26 S18G26    30.20F
COLUMBUS       PTSUNNY   39  13  34 S15G22    30.25F WCI  31
DAYTON         PTSUNNY   45  16  31 S21G29    30.18F
WILMINGTON     SUNNY     42  19  39 S18       30.21F
HUNTINGTON     LGT RAIN  46   6  19 SW9       30.30F
CHARLESTON     MOSUNNY   44   6  21 VRB3      30.30F
PINEVILLE*     SUNNY     48  11  22 MISG      30.31F
BECKLEY        SUNNY     43  -4  14 VRB3      30.24F
BLUEFIELD      SUNNY     47  -1  13 MISG      30.24F
$$

VAZ002-007-008-TNZ017-027-036-066-071-291900
...SOUTHWEST VIRGINIA/EAST TENNESSEE...

CITY           SKY/WX    TMP DP  RH WIND       PRES   REMARKS
WISE*          SUNNY     46  -4  12 S13       30.24F
JONESVILLE*    CLEAR     48   7  18 SW6       30.31F
ABINGDON*      SUNNY     49  -4  11 S3        30.27F
BRISTOL        MOSUNNY   49   7  18 W6        30.29F
KNOXVILLE      MOSUNNY   51  16  24 SW14      30.31
OAK RIDGE      SUNNY     52  13  21 S10       30.32F
CROSSVILLE       N/A     50   8  18 S12       30.26F
NASHVILLE      MOSUNNY   56  15  20 SW9       30.26F
$$

...KEY TO REMARKS...
VSB - VISIBILITY IN MILES
WCI - WIND CHILL INDEX
HX  - HEAT INDEX

$$


USA.gov is the U.S. government's official web portal to all federal, state and local government web resources and services.